Time,TemperatureF,DewpointF,PressureIn,WindDirection,WindDirectionDegrees,WindSpeedMPH,WindSpeedGustMPH,Humidity,HourlyPrecipIn,Conditions,Clouds,dailyrainin,SoftwareType,DateUTC
2013-09-24 00:00:00,65.8,40.2,29.80,North,356,0.0,3.6,39,0.00,,SKC,-99.99,VWS V12.07,2013-09-23 22:00:00,
2013-09-24 00:10:00,65.8,40.2,29.80,North,356,0.0,0.0,39,0.00,,SKC,-99.99,VWS V12.07,2013-09-23 22:10:00,
2013-09-24 00:20:00,66.0,40.4,29.80,North,356,2.7,3.6,39,0.00,,SKC,-99.99,VWS V12.07,2013-09-23 22:20:00,
2013-09-24 00:30:00,64.6,39.7,29.80,North,356,0.0,0.0,40,0.00,,SKC,-99.99,VWS V12.07,2013-09-23 22:30:00,
2013-09-24 00:40:00,64.6,40.4,29.80,North,356,0.0,2.7,41,0.00,,SKC,-99.99,VWS V12.07,2013-09-23 22:40:00,
2013-09-24 00:50:00,64.8,40.5,29.80,North,356,0.0,0.0,41,0.00,,SKC,-99.99,VWS V12.07,2013-09-23 22:50:00,
2013-09-24 01:00:00,65.1,40.2,29.80,North,356,0.0,0.0,40,0.00,,SKC,-99.99,VWS V12.07,2013-09-23 23:00:00,
2013-09-24 01:10:00,65.1,40.2,29.80,North,356,0.0,0.0,40,0.00,,SKC,-99.99,VWS V12.07,2013-09-23 23:10:00,
2013-09-24 01:20:00,65.3,40.4,29.80,North,356,0.0,0.0,40,0.00,,SKC,-99.99,VWS V12.07,2013-09-23 23:20:00,
2013-09-24 01:30:00,65.1,40.9,29.80,North,356,0.0,0.0,41,0.00,,SKC,-99.99,VWS V12.07,2013-09-23 23:30:00,
2013-09-24 01:40:00,65.1,40.9,29.80,North,356,0.0,0.0,41,0.00,,SKC,-99.99,VWS V12.07,2013-09-23 23:40:00,
2013-09-24 01:50:00,64.9,41.3,29.77,North,356,0.0,0.0,42,0.00,,SKC,-99.99,VWS V12.07,2013-09-23 23:50:00,
2013-09-24 02:00:00,64.4,41.4,29.77,North,356,0.0,0.0,43,0.00,,SKC,-99.99,VWS V12.07,2013-09-24 00:00:00,
2013-09-24 02:10:00,64.2,41.9,29.80,North,356,0.0,0.0,44,0.00,,SKC,-99.99,VWS V12.07,2013-09-24 00:10:00,
2013-09-24 02:20:00,64.0,41.7,29.80,North,356,0.0,0.0,44,0.00,,SKC,-99.99,VWS V12.07,2013-09-24 00:20:00,
2013-09-24 02:30:00,63.7,42.0,29.80,North,356,0.0,0.0,45,0.00,,SKC,-99.99,VWS V12.07,2013-09-24 00:30:00,
2013-09-24 02:40:00,63.7,42.0,29.80,North,356,0.0,0.0,45,0.00,,SKC,-99.99,VWS V12.07,2013-09-24 00:40:00,
2013-09-24 02:50:00,63.9,42.7,29.80,North,356,0.0,2.7,46,0.00,,SKC,-99.99,VWS V12.07,2013-09-24 00:50:00,
2013-09-24 03:00:00,63.9,42.7,29.80,North,356,0.0,0.0,46,0.00,,SKC,-99.99,VWS V12.07,2013-09-24 01:00:00,
2013-09-24 03:10:00,63.3,42.2,29.77,North,356,0.0,0.0,46,0.00,,SKC,-99.99,VWS V12.07,2013-09-24 01:10:00,
2013-09-24 03:20:00,63.3,42.8,29.77,North,356,0.0,0.0,47,0.00,,SKC,-99.99,VWS V12.07,2013-09-24 01:20:00,
2013-09-24 03:30:00,63.1,43.2,29.77,North,356,0.0,0.0,48,0.00,,SKC,-99.99,VWS V12.07,2013-09-24 01:30:00,
2013-09-24 03:40:00,62.6,43.2,29.77,North,356,0.0,0.0,49,0.00,,,-99.99,VWS V12.07,2013-09-24 01:40:00,
2013-09-24 03:50:00,62.6,43.2,29.77,North,356,2.7,3.1,49,0.00,,,-99.99,VWS V12.07,2013-09-24 01:50:00,
2013-09-24 04:00:00,62.2,42.3,29.77,North,356,4.5,4.5,48,0.00,,,-99.99,VWS V12.07,2013-09-24 02:00:00,
2013-09-24 04:10:00,62.1,43.2,29.77,North,356,4.0,4.0,50,0.00,,,-99.99,VWS V12.07,2013-09-24 02:10:00,
2013-09-24 04:20:00,62.8,42.8,29.77,North,356,0.0,0.0,48,0.00,,,-99.99,VWS V12.07,2013-09-24 02:20:00,
2013-09-24 04:30:00,61.9,40.9,29.77,North,356,2.7,3.6,46,0.00,,,-99.99,VWS V12.07,2013-09-24 02:30:00,
2013-09-24 04:40:00,60.8,41.5,29.77,North,356,4.5,4.5,49,0.00,,SKC,-99.99,VWS V12.07,2013-09-24 02:40:00,
2013-09-24 04:50:00,61.3,43.6,29.77,North,356,0.0,0.0,52,0.00,,SKC,-99.99,VWS V12.07,2013-09-24 02:50:00,
2013-09-24 05:00:00,61.3,44.1,29.77,North,356,0.0,0.0,53,0.00,,SKC,-99.99,VWS V12.07,2013-09-24 03:00:00,
2013-09-24 05:10:00,61.5,44.2,29.77,North,356,0.0,0.0,53,0.00,,SKC,-99.99,VWS V12.07,2013-09-24 03:10:00,
2013-09-24 05:20:00,59.9,42.2,29.74,North,356,0.0,4.0,52,0.00,,SKC,-99.99,VWS V12.07,2013-09-24 03:20:00,
2013-09-24 05:30:00,60.3,45.0,29.74,North,356,0.0,0.0,57,0.00,,SKC,-99.99,VWS V12.07,2013-09-24 03:30:00,
2013-09-24 05:40:00,61.3,44.6,29.77,North,356,0.0,0.0,54,0.00,,SKC,-99.99,VWS V12.07,2013-09-24 03:40:00,
2013-09-24 05:50:00,61.7,42.9,29.77,North,356,0.0,0.0,50,0.00,,SKC,-99.99,VWS V12.07,2013-09-24 03:50:00,
2013-09-24 06:00:00,60.8,42.6,29.77,North,356,4.0,4.5,51,0.00,,SKC,-99.99,VWS V12.07,2013-09-24 04:00:00,
2013-09-24 06:05:00,60.4,42.8,29.77,North,356,3.1,3.1,52,0.00,,SKC,-99.99,VWS V12.07,2013-09-24 04:05:00,
2013-09-24 06:10:00,60.1,42.9,29.77,North,356,0.0,0.0,53,0.00,,SKC,-99.99,VWS V12.07,2013-09-24 04:10:00,
2013-09-24 06:15:00,59.5,42.9,29.77,North,356,0.0,0.0,54,0.00,,SKC,-99.99,VWS V12.07,2013-09-24 04:15:00,
2013-09-24 06:20:00,59.4,42.7,29.77,North,356,0.0,0.0,54,0.00,,SKC,-99.99,VWS V12.07,2013-09-24 04:20:00,
2013-09-24 06:25:00,59.5,42.9,29.77,North,356,0.0,0.0,54,0.00,,SKC,-99.99,VWS V12.07,2013-09-24 04:25:00,
2013-09-24 06:30:00,59.7,42.1,29.77,North,356,0.0,0.0,52,0.00,,SKC,-99.99,VWS V12.07,2013-09-24 04:30:00,
2013-09-24 06:40:00,60.1,42.4,29.77,North,356,0.0,0.0,52,0.00,,SKC,-99.99,VWS V12.07,2013-09-24 04:40:00,
2013-09-24 06:50:00,60.3,42.1,29.77,North,356,0.0,0.0,51,0.00,,SKC,-99.99,VWS V12.07,2013-09-24 04:50:00,
2013-09-24 07:00:00,59.7,41.1,29.77,SE,138,0.0,0.0,50,0.00,,SKC,-99.99,VWS V12.07,2013-09-24 05:00:00,
2013-09-24 07:10:00,59.9,41.8,29.77,NE,48,0.0,0.0,51,0.00,,SKC,-99.99,VWS V12.07,2013-09-24 05:10:00,
2013-09-24 07:20:00,60.3,41.6,29.77,NE,48,0.0,0.0,50,0.00,,SKC,-99.99,VWS V12.07,2013-09-24 05:20:00,
2013-09-24 07:30:00,61.0,41.7,29.77,NE,48,0.0,0.0,49,0.00,,SKC,-99.99,VWS V12.07,2013-09-24 05:30:00,
2013-09-24 07:40:00,61.5,41.7,29.77,NE,48,0.0,0.0,48,0.00,,SKC,-99.99,VWS V12.07,2013-09-24 05:40:00,
2013-09-24 07:50:00,60.4,40.7,29.77,NNW,346,0.0,0.0,48,0.00,,SKC,-99.99,VWS V12.07,2013-09-24 05:50:00,
2013-09-24 08:00:00,60.8,42.6,29.77,NNW,346,0.0,0.0,51,0.00,,SKC,-99.99,VWS V12.07,2013-09-24 06:00:00,
2013-09-24 08:10:00,61.3,41.5,29.77,SSE,163,3.1,3.6,48,0.00,,SKC,-99.99,VWS V12.07,2013-09-24 06:10:00,
2013-09-24 08:21:00,62.1,41.6,29.77,SE,146,3.1,4.0,47,0.00,,SKC,-99.99,VWS V12.07,2013-09-24 06:21:00,
2013-09-24 08:31:00,62.1,40.5,29.77,SE,126,3.1,4.0,45,0.00,,SKC,-99.99,VWS V12.07,2013-09-24 06:31:00,
2013-09-24 08:40:00,62.8,41.2,29.77,SSE,155,0.0,0.0,45,0.00,,SKC,-99.99,VWS V12.07,2013-09-24 06:40:00,
2013-09-24 08:50:00,63.7,41.4,29.77,South,184,0.0,0.0,44,0.00,,SKC,-99.99,VWS V12.07,2013-09-24 06:50:00,
2013-09-24 09:01:00,64.0,42.3,29.77,SSW,211,0.0,2.7,45,0.00,,SKC,-99.99,VWS V12.07,2013-09-24 07:01:00,
2013-09-24 09:10:00,64.4,41.4,29.80,South,171,0.0,2.7,43,0.00,,SKC,-99.99,VWS V12.07,2013-09-24 07:10:00,
2013-09-24 09:20:00,64.6,41.0,29.80,WNW,301,0.0,2.7,42,0.00,,SKC,-99.99,VWS V12.07,2013-09-24 07:20:00,
2013-09-24 09:30:00,64.8,41.8,29.80,WNW,301,0.0,0.0,43,0.00,,SKC,-99.99,VWS V12.07,2013-09-24 07:30:00,
2013-09-24 09:40:00,65.8,42.1,29.80,SW,234,3.1,3.1,42,0.00,,SKC,-99.99,VWS V12.07,2013-09-24 07:40:00,
2013-09-24 09:51:00,66.0,41.7,29.80,WNW,303,0.0,0.0,41,0.00,,SKC,-99.99,VWS V12.07,2013-09-24 07:51:00,
2013-09-24 10:00:00,66.9,41.2,29.80,WNW,302,0.0,0.0,39,0.00,,SKC,-99.99,VWS V12.07,2013-09-24 08:00:00,
2013-09-24 10:10:00,68.2,40.9,29.80,SSW,209,0.0,2.7,37,0.00,,SKC,-99.99,VWS V12.07,2013-09-24 08:10:00,
2013-09-24 10:20:00,68.9,40.2,29.80,SW,221,4.0,4.5,35,0.00,,SKC,-99.99,VWS V12.07,2013-09-24 08:20:00,
2013-09-24 10:30:00,69.3,39.7,29.80,South,173,3.1,4.5,34,0.00,,SKC,-99.99,VWS V12.07,2013-09-24 08:30:00,
2013-09-24 10:40:00,70.0,39.6,29.80,SSE,164,0.0,4.5,33,0.00,,SKC,-99.99,VWS V12.07,2013-09-24 08:40:00,
2013-09-24 10:51:00,70.2,39.0,29.80,South,188,3.1,3.6,32,0.00,,SKC,-99.99,VWS V12.07,2013-09-24 08:51:00,
2013-09-24 11:01:00,71.4,40.0,29.80,South,188,4.5,4.5,32,0.00,,SKC,-99.99,VWS V12.07,2013-09-24 09:01:00,
2013-09-24 11:11:00,71.8,39.5,29.80,SW,234,3.6,4.5,31,0.00,,SKC,-99.99,VWS V12.07,2013-09-24 09:11:00,
2013-09-24 11:21:00,72.1,39.0,29.80,South,176,4.7,4.7,30,0.00,,SKC,-99.99,VWS V12.07,2013-09-24 09:21:00,
2013-09-24 11:31:00,72.9,38.8,29.80,SW,225,6.0,6.5,29,0.00,,SKC,-99.99,VWS V12.07,2013-09-24 09:31:00,
2013-09-24 11:41:00,72.3,38.3,29.80,SSW,199,4.0,5.6,29,0.00,,SKC,-99.99,VWS V12.07,2013-09-24 09:41:00,
2013-09-24 11:51:00,73.6,37.6,29.80,SW,224,3.6,5.1,27,0.00,,SKC,-99.99,VWS V12.07,2013-09-24 09:51:00,
2013-09-24 12:01:00,73.8,37.7,29.80,South,182,0.0,5.1,27,0.00,,SKC,-99.99,VWS V12.07,2013-09-24 10:01:00,
2013-09-24 12:11:00,73.9,37.9,29.80,SSW,212,0.0,6.0,27,0.00,,SKC,-99.99,VWS V12.07,2013-09-24 10:11:00,
2013-09-24 12:21:00,73.9,36.9,29.77,SSE,168,5.1,6.0,26,0.00,,SKC,-99.99,VWS V12.07,2013-09-24 10:21:00,
2013-09-24 12:30:00,74.5,37.4,29.77,South,172,0.0,4.0,26,0.00,,SKC,-99.99,VWS V12.07,2013-09-24 10:30:00,
2013-09-24 12:41:00,74.8,37.7,29.77,WSW,237,4.7,4.7,26,0.00,,SKC,-99.99,VWS V12.07,2013-09-24 10:41:00,
2013-09-24 12:51:00,74.7,37.5,29.77,WSW,239,4.5,6.0,26,0.00,,SKC,-99.99,VWS V12.07,2013-09-24 10:51:00,
2013-09-24 13:00:00,75.2,37.0,29.77,SW,219,4.5,5.1,25,0.00,,SKC,-99.99,VWS V12.07,2013-09-24 11:00:00,
2013-09-24 13:11:00,75.6,37.3,29.77,WNW,294,5.1,5.1,25,0.00,,SKC,-99.99,VWS V12.07,2013-09-24 11:11:00,
2013-09-24 13:20:00,75.4,37.2,29.77,SW,225,6.5,6.5,25,0.00,,SKC,-99.99,VWS V12.07,2013-09-24 11:20:00,
2013-09-24 13:30:00,75.9,36.6,29.77,WSW,258,3.6,6.0,24,0.00,,SKC,-99.99,VWS V12.07,2013-09-24 11:30:00,
2013-09-24 13:40:00,75.9,35.5,29.77,North,350,0.0,5.1,23,0.00,,SKC,-99.99,VWS V12.07,2013-09-24 11:40:00,
2013-09-24 13:51:00,75.9,35.5,29.77,West,263,0.0,6.5,23,0.00,,SKC,-99.99,VWS V12.07,2013-09-24 11:51:00,
2013-09-24 14:01:00,75.9,35.5,29.77,West,274,3.1,6.5,23,0.00,,SKC,-99.99,VWS V12.07,2013-09-24 12:01:00,
2013-09-24 14:10:00,75.9,35.5,29.77,SW,231,10.3,10.3,23,0.00,,SKC,-99.99,VWS V12.07,2013-09-24 12:10:00,
2013-09-24 14:20:00,75.9,35.5,29.77,SW,220,8.9,9.4,23,0.00,,SKC,-99.99,VWS V12.07,2013-09-24 12:20:00,
2013-09-24 14:30:00,76.6,40.2,29.77,SSW,206,6.5,8.9,27,0.00,,SKC,-99.99,VWS V12.07,2013-09-24 12:30:00,
2013-09-24 14:40:00,76.6,40.2,29.77,West,281,4.0,7.4,27,0.00,,SKC,-99.99,VWS V12.07,2013-09-24 12:40:00,
2013-09-24 14:50:00,76.6,40.2,29.77,SSW,196,3.6,8.9,27,0.00,,SKC,-99.99,VWS V12.07,2013-09-24 12:50:00,
2013-09-24 15:00:00,76.6,42.9,29.77,WSW,248,7.4,10.7,30,0.00,,SKC,-99.99,VWS V12.07,2013-09-24 13:00:00,
2013-09-24 15:10:00,75.7,43.0,29.77,West,270,6.9,8.9,31,0.00,,SKC,-99.99,VWS V12.07,2013-09-24 13:10:00,
2013-09-24 15:20:00,75.7,43.0,29.77,SSW,210,6.0,6.5,31,0.00,,SKC,-99.99,VWS V12.07,2013-09-24 13:20:00,
2013-09-24 15:31:00,76.3,43.5,29.77,WSW,239,10.3,10.3,31,0.00,,SKC,-99.99,VWS V12.07,2013-09-24 13:31:00,
2013-09-24 15:41:00,75.4,42.7,29.77,SSW,199,6.9,8.3,31,0.00,,SKC,-99.99,VWS V12.07,2013-09-24 13:41:00,
2013-09-24 15:51:00,75.7,43.0,29.77,WSW,240,4.5,6.5,31,0.00,,SKC,-99.99,VWS V12.07,2013-09-24 13:51:00,
2013-09-24 16:01:00,75.7,43.0,29.77,SW,220,3.1,5.6,31,0.00,,SKC,-99.99,VWS V12.07,2013-09-24 14:01:00,
2013-09-24 16:10:00,74.8,43.0,29.77,SW,232,4.7,8.7,32,0.00,,SKC,-99.99,VWS V12.07,2013-09-24 14:10:00,
2013-09-24 16:20:00,75.0,44.0,29.74,WSW,241,4.7,6.0,33,0.00,,SKC,-99.99,VWS V12.07,2013-09-24 14:20:00,
2013-09-24 16:31:00,74.8,43.0,29.74,SSW,197,6.9,6.9,32,0.00,,SKC,-99.99,VWS V12.07,2013-09-24 14:31:00,
2013-09-24 16:40:00,75.0,44.0,29.77,SW,234,6.5,6.5,33,0.00,,SKC,-99.99,VWS V12.07,2013-09-24 14:40:00,
2013-09-24 16:50:00,75.2,43.3,29.77,WSW,247,0.0,3.6,32,0.00,,SKC,-99.99,VWS V12.07,2013-09-24 14:50:00,
2013-09-24 17:00:00,75.2,43.3,29.77,SW,236,5.1,6.9,32,0.00,,SKC,-99.99,VWS V12.07,2013-09-24 15:00:00,
2013-09-24 17:10:00,75.0,44.0,29.77,South,170,4.7,5.6,33,0.00,,SKC,-99.99,VWS V12.07,2013-09-24 15:10:00,
2013-09-24 17:20:00,74.7,44.5,29.77,WSW,241,3.1,6.0,34,0.00,,SKC,-99.99,VWS V12.07,2013-09-24 15:20:00,
2013-09-24 17:30:00,74.8,44.6,29.77,SSW,208,2.7,4.7,34,0.00,,SKC,-99.99,VWS V12.07,2013-09-24 15:30:00,
2013-09-24 17:40:00,74.3,44.9,29.77,West,262,3.1,6.0,35,0.00,,SKC,-99.99,VWS V12.07,2013-09-24 15:40:00,
2013-09-24 17:50:00,73.9,44.6,29.74,SW,227,6.5,6.5,35,0.00,,SKC,-99.99,VWS V12.07,2013-09-24 15:50:00,
2013-09-24 18:00:00,73.6,45.0,29.74,WSW,242,4.0,5.1,36,0.00,,SKC,-99.99,VWS V12.07,2013-09-24 16:00:00,
2013-09-24 18:11:00,73.6,45.7,29.74,WSW,237,6.9,6.9,37,0.00,,SKC,-99.99,VWS V12.07,2013-09-24 16:11:00,
2013-09-24 18:20:00,72.7,48.3,29.74,SSW,203,0.0,6.5,42,0.00,,SKC,-99.99,VWS V12.07,2013-09-24 16:20:00,
2013-09-24 18:30:00,72.0,48.3,29.74,SW,227,4.5,6.5,43,0.00,,SKC,-99.99,VWS V12.07,2013-09-24 16:30:00,
2013-09-24 18:41:00,71.4,49.0,29.74,WSW,255,2.7,4.7,45,0.00,,SKC,-99.99,VWS V12.07,2013-09-24 16:41:00,
2013-09-24 18:50:00,70.9,49.1,29.74,WSW,249,0.0,3.6,46,0.00,,SKC,-99.99,VWS V12.07,2013-09-24 16:50:00,
2013-09-24 19:00:00,70.3,50.3,29.74,North,357,0.0,3.1,49,0.00,,SKC,-99.99,VWS V12.07,2013-09-24 17:00:00,
2013-09-24 19:10:00,70.0,51.0,29.77,North,357,0.0,0.0,51,0.00,,SKC,-99.99,VWS V12.07,2013-09-24 17:10:00,
2013-09-24 19:20:00,69.6,52.8,29.77,North,357,0.0,4.0,55,0.00,,SKC,-99.99,VWS V12.07,2013-09-24 17:20:00,
2013-09-24 19:30:00,69.3,52.9,29.77,North,356,0.0,0.0,56,0.00,,SKC,-99.99,VWS V12.07,2013-09-24 17:30:00,
2013-09-24 19:40:00,69.1,52.7,29.77,North,356,0.0,0.0,56,0.00,,,-99.99,VWS V12.07,2013-09-24 17:40:00,
2013-09-24 19:50:00,68.9,52.6,29.77,North,356,0.0,0.0,56,0.00,,,-99.99,VWS V12.07,2013-09-24 17:50:00,
2013-09-24 19:56:00,68.9,52.6,29.77,North,356,0.0,0.0,56,0.00,,,-99.99,VWS V12.07,2013-09-24 17:56:00,
2013-09-24 20:05:00,68.7,52.4,29.77,North,356,0.0,0.0,56,0.00,,,-99.99,VWS V12.07,2013-09-24 18:05:00,
2013-09-24 20:10:00,68.5,52.2,29.77,North,356,0.0,0.0,56,0.00,,,-99.99,VWS V12.07,2013-09-24 18:10:00,
2013-09-24 20:20:00,68.4,52.1,29.77,North,356,0.0,0.0,56,0.00,,,-99.99,VWS V12.07,2013-09-24 18:20:00,
2013-09-24 20:30:00,68.4,52.5,29.77,North,356,0.0,0.0,57,0.00,,,-99.99,VWS V12.07,2013-09-24 18:30:00,
2013-09-24 20:40:00,68.5,51.8,29.77,North,356,0.0,0.0,55,0.00,,SKC,-99.99,VWS V12.07,2013-09-24 18:40:00,
2013-09-24 20:50:00,68.4,51.1,29.77,North,356,0.0,0.0,54,0.00,,SKC,-99.99,VWS V12.07,2013-09-24 18:50:00,
2013-09-24 21:00:00,68.4,51.1,29.77,North,356,0.0,0.0,54,0.00,,SKC,-99.99,VWS V12.07,2013-09-24 19:00:00,
2013-09-24 21:10:00,68.2,50.9,29.77,North,356,0.0,0.0,54,0.00,,SKC,-99.99,VWS V12.07,2013-09-24 19:10:00,
2013-09-24 21:20:00,68.0,50.8,29.77,North,356,0.0,0.0,54,0.00,,SKC,-99.99,VWS V12.07,2013-09-24 19:20:00,
2013-09-24 21:30:00,67.8,51.1,29.77,North,356,0.0,0.0,55,0.00,,SKC,-99.99,VWS V12.07,2013-09-24 19:30:00,
2013-09-24 21:40:00,67.8,51.6,29.77,North,356,0.0,0.0,56,0.00,,SKC,-99.99,VWS V12.07,2013-09-24 19:40:00,
2013-09-24 21:50:00,67.5,51.2,29.77,North,356,0.0,0.0,56,0.00,,SKC,-99.99,VWS V12.07,2013-09-24 19:50:00,
2013-09-24 22:00:00,66.7,52.0,29.77,North,356,0.0,2.7,59,0.00,,SKC,-99.99,VWS V12.07,2013-09-24 20:00:00,
2013-09-24 22:10:00,66.7,52.9,29.77,North,356,0.0,0.0,61,0.00,,SKC,-99.99,VWS V12.07,2013-09-24 20:10:00,
2013-09-24 22:20:00,66.9,52.6,29.77,North,356,0.0,0.0,60,0.00,,SKC,-99.99,VWS V12.07,2013-09-24 20:20:00,
2013-09-24 22:30:00,66.9,52.1,29.77,North,356,0.0,0.0,59,0.00,,SKC,-99.99,VWS V12.07,2013-09-24 20:30:00,
2013-09-24 22:40:00,67.1,51.8,29.77,North,356,0.0,0.0,58,0.00,,SKC,-99.99,VWS V12.07,2013-09-24 20:40:00,
2013-09-24 22:50:00,66.9,51.7,29.77,North,356,0.0,0.0,58,0.00,,SKC,-99.99,VWS V12.07,2013-09-24 20:50:00,
2013-09-24 23:00:00,66.4,50.7,29.77,North,356,0.0,0.0,57,0.00,,SKC,-99.99,VWS V12.07,2013-09-24 21:00:00,
2013-09-24 23:10:00,66.2,51.0,29.77,North,356,0.0,0.0,58,0.00,,SKC,-99.99,VWS V12.07,2013-09-24 21:10:00,
2013-09-24 23:20:00,66.2,51.9,29.77,North,356,0.0,0.0,60,0.00,,SKC,-99.99,VWS V12.07,2013-09-24 21:20:00,
2013-09-24 23:30:00,66.4,52.1,29.77,North,356,0.0,0.0,60,0.00,,SKC,-99.99,VWS V12.07,2013-09-24 21:30:00,
2013-09-24 23:40:00,66.4,52.1,29.77,North,356,0.0,0.0,60,0.00,,SKC,-99.99,VWS V12.07,2013-09-24 21:40:00,
2013-09-24 23:50:00,66.2,51.9,29.77,North,356,0.0,0.0,60,0.00,,SKC,-99.99,VWS V12.07,2013-09-24 21:50:00,